Year,Month,Day,Hour,Minute,Value (Times are PST for temperature in C)
2015,08,12,00,00,18.50
2015,08,12,00,01,18.50
2015,08,12,00,02,18.50
2015,08,12,00,03,18.50
2015,08,12,00,04,18.50
2015,08,12,00,05,18.50
2015,08,12,00,06,18.50
2015,08,12,00,07,18.50
2015,08,12,00,08,18.50
2015,08,12,00,09,18.50
2015,08,12,00,10,18.50
2015,08,12,00,11,18.40
2015,08,12,00,12,18.40
2015,08,12,00,13,18.40
2015,08,12,00,14,18.40
2015,08,12,00,15,18.40
2015,08,12,00,16,18.40
2015,08,12,00,17,18.30
2015,08,12,00,18,18.30
2015,08,12,00,19,18.30
2015,08,12,00,20,18.20
2015,08,12,00,21,18.20
2015,08,12,00,22,18.10
2015,08,12,00,23,18.10
2015,08,12,00,24,18.00
2015,08,12,00,25,18.00
2015,08,12,00,26,17.90
2015,08,12,00,27,17.90
2015,08,12,00,28,17.90
2015,08,12,00,29,17.90
2015,08,12,00,30,17.80
2015,08,12,00,31,17.80
2015,08,12,00,32,17.80
2015,08,12,00,33,17.80
2015,08,12,00,34,17.80
2015,08,12,00,35,17.80
2015,08,12,00,36,17.70
2015,08,12,00,37,17.70
2015,08,12,00,38,17.70
2015,08,12,00,39,17.70
2015,08,12,00,40,17.70
2015,08,12,00,41,17.60
2015,08,12,00,42,17.60
2015,08,12,00,43,17.60
2015,08,12,00,44,17.60
2015,08,12,00,45,17.60
2015,08,12,00,46,17.60
2015,08,12,00,47,17.60
2015,08,12,00,48,17.50
2015,08,12,00,49,17.50
2015,08,12,00,50,17.50
2015,08,12,00,51,17.50
2015,08,12,00,52,17.50
2015,08,12,00,53,17.50
2015,08,12,00,54,17.50
2015,08,12,00,55,17.50
2015,08,12,00,56,17.50
2015,08,12,00,57,17.50
2015,08,12,00,58,17.50
2015,08,12,00,59,17.50
2015,08,12,01,00,17.40
2015,08,12,01,01,17.40
2015,08,12,01,02,17.40
2015,08,12,01,03,17.40
2015,08,12,01,04,17.40
2015,08,12,01,05,17.40
2015,08,12,01,06,17.40
2015,08,12,01,07,17.40
2015,08,12,01,08,17.40
2015,08,12,01,09,17.30
2015,08,12,01,10,17.30
2015,08,12,01,11,17.30
2015,08,12,01,12,17.30
2015,08,12,01,13,17.30
2015,08,12,01,14,17.30
2015,08,12,01,15,17.30
2015,08,12,01,16,17.30
2015,08,12,01,17,17.30
2015,08,12,01,18,17.30
2015,08,12,01,19,17.30
2015,08,12,01,20,17.30
2015,08,12,01,21,17.30
2015,08,12,01,22,17.30
2015,08,12,01,23,17.30
2015,08,12,01,24,17.30
2015,08,12,01,25,17.30
2015,08,12,01,26,17.30
2015,08,12,01,27,17.30
2015,08,12,01,28,17.30
2015,08,12,01,29,17.30
2015,08,12,01,30,17.30
2015,08,12,01,31,17.20
2015,08,12,01,32,17.20
2015,08,12,01,33,17.20
2015,08,12,01,34,17.20
2015,08,12,01,35,17.20
2015,08,12,01,36,17.20
2015,08,12,01,37,17.20
2015,08,12,01,38,17.10
2015,08,12,01,39,17.10
2015,08,12,01,40,17.10
2015,08,12,01,41,17.10
2015,08,12,01,42,17.00
2015,08,12,01,43,17.00
2015,08,12,01,44,17.00
2015,08,12,01,45,16.90
2015,08,12,01,46,16.90
2015,08,12,01,47,16.90
2015,08,12,01,48,16.90
2015,08,12,01,49,16.90
2015,08,12,01,50,16.90
2015,08,12,01,51,16.90
2015,08,12,01,52,16.90
2015,08,12,01,53,16.90
2015,08,12,01,54,17.00
2015,08,12,01,55,17.00
2015,08,12,01,56,17.00
2015,08,12,01,57,17.00
2015,08,12,01,58,17.10
2015,08,12,01,59,17.10
2015,08,12,02,00,17.10
2015,08,12,02,01,17.10
2015,08,12,02,02,17.10
2015,08,12,02,03,17.10
2015,08,12,02,04,17.10
2015,08,12,02,05,17.10
2015,08,12,02,06,17.10
2015,08,12,02,07,17.10
2015,08,12,02,08,17.10
2015,08,12,02,09,17.10
2015,08,12,02,10,17.10
2015,08,12,02,11,17.00
2015,08,12,02,12,17.00
2015,08,12,02,13,17.00
2015,08,12,02,14,17.00
2015,08,12,02,15,17.00
2015,08,12,02,16,17.00
2015,08,12,02,17,17.00
2015,08,12,02,18,16.90
2015,08,12,02,19,16.90
2015,08,12,02,20,16.90
2015,08,12,02,21,16.90
2015,08,12,02,22,16.90
2015,08,12,02,23,16.90
2015,08,12,02,24,16.90
2015,08,12,02,25,16.90
2015,08,12,02,26,16.90
2015,08,12,02,27,16.90
2015,08,12,02,28,17.00
2015,08,12,02,29,17.00
2015,08,12,02,30,17.00
2015,08,12,02,31,17.00
2015,08,12,02,32,17.00
2015,08,12,02,33,17.00
2015,08,12,02,34,17.00
2015,08,12,02,35,17.00
2015,08,12,02,36,17.00
2015,08,12,02,37,17.00
2015,08,12,02,38,17.00
2015,08,12,02,39,17.00
2015,08,12,02,40,17.00
2015,08,12,02,41,17.00
2015,08,12,02,42,17.00
2015,08,12,02,43,17.00
2015,08,12,02,44,17.00
2015,08,12,02,45,17.00
2015,08,12,02,46,17.10
2015,08,12,02,47,17.10
2015,08,12,02,48,17.10
2015,08,12,02,49,17.10
2015,08,12,02,50,17.10
2015,08,12,02,51,17.10
2015,08,12,02,52,17.10
2015,08,12,02,53,17.10
2015,08,12,02,54,17.10
2015,08,12,02,55,17.10
2015,08,12,02,56,17.10
2015,08,12,02,57,17.10
2015,08,12,02,58,17.10
2015,08,12,02,59,17.10
2015,08,12,03,00,17.10
2015,08,12,03,01,17.10
2015,08,12,03,02,17.10
2015,08,12,03,03,17.10
2015,08,12,03,04,17.10
2015,08,12,03,05,17.10
2015,08,12,03,06,17.10
2015,08,12,03,07,17.10
2015,08,12,03,08,17.10
2015,08,12,03,09,17.10
2015,08,12,03,10,17.10
2015,08,12,03,11,17.10
2015,08,12,03,12,17.10
2015,08,12,03,13,17.10
2015,08,12,03,14,17.10
2015,08,12,03,15,17.10
2015,08,12,03,16,17.10
2015,08,12,03,17,17.10
2015,08,12,03,18,17.10
2015,08,12,03,19,17.10
2015,08,12,03,20,17.10
2015,08,12,03,21,17.10
2015,08,12,03,22,17.10
2015,08,12,03,23,17.10
2015,08,12,03,24,17.10
2015,08,12,03,25,17.10
2015,08,12,03,26,17.10
2015,08,12,03,27,17.10
2015,08,12,03,28,17.10
2015,08,12,03,29,17.10
2015,08,12,03,30,17.10
2015,08,12,03,31,17.10
2015,08,12,03,32,17.10
2015,08,12,03,33,17.20
2015,08,12,03,34,17.20
2015,08,12,03,35,17.20
2015,08,12,03,36,17.10
2015,08,12,03,37,17.10
2015,08,12,03,38,17.10
2015,08,12,03,39,17.10
2015,08,12,03,40,17.10
2015,08,12,03,41,17.10
2015,08,12,03,42,17.10
2015,08,12,03,43,17.10
2015,08,12,03,44,17.10
2015,08,12,03,45,17.10
2015,08,12,03,46,17.00
2015,08,12,03,47,17.00
2015,08,12,03,48,16.90
2015,08,12,03,49,16.90
2015,08,12,03,50,16.90
2015,08,12,03,51,16.90
2015,08,12,03,52,16.90
2015,08,12,03,53,16.80
2015,08,12,03,54,16.80
2015,08,12,03,55,16.80
2015,08,12,03,56,16.80
2015,08,12,03,57,16.80
2015,08,12,03,58,16.80
2015,08,12,03,59,16.80
2015,08,12,04,00,16.80
2015,08,12,04,01,16.80
2015,08,12,04,02,16.70
2015,08,12,04,03,16.70
2015,08,12,04,04,16.70
2015,08,12,04,05,16.70
2015,08,12,04,06,16.60
2015,08,12,04,07,16.60
2015,08,12,04,08,16.60
2015,08,12,04,09,16.50
2015,08,12,04,10,16.50
2015,08,12,04,11,16.50
2015,08,12,04,12,16.40
2015,08,12,04,13,16.40
2015,08,12,04,14,16.40
2015,08,12,04,15,16.40
2015,08,12,04,16,16.40
2015,08,12,04,17,16.30
2015,08,12,04,18,16.30
2015,08,12,04,19,16.30
2015,08,12,04,20,16.30
2015,08,12,04,21,16.30
2015,08,12,04,22,16.20
2015,08,12,04,23,16.20
2015,08,12,04,24,16.20
2015,08,12,04,25,16.20
2015,08,12,04,26,16.20
2015,08,12,04,27,16.10
2015,08,12,04,28,16.10
2015,08,12,04,29,16.10
2015,08,12,04,30,16.10
2015,08,12,04,31,16.10
2015,08,12,04,32,16.00
2015,08,12,04,33,16.00
2015,08,12,04,34,16.00
2015,08,12,04,35,15.90
2015,08,12,04,36,15.90
2015,08,12,04,37,15.90
2015,08,12,04,38,15.90
2015,08,12,04,39,15.90
2015,08,12,04,40,15.90
2015,08,12,04,41,15.90
2015,08,12,04,42,15.80
2015,08,12,04,43,15.80
2015,08,12,04,44,15.80
2015,08,12,04,45,15.80
2015,08,12,04,46,15.80
2015,08,12,04,47,15.80
2015,08,12,04,48,15.80
2015,08,12,04,49,15.80
2015,08,12,04,50,15.70
2015,08,12,04,51,15.70
2015,08,12,04,52,15.70
2015,08,12,04,53,15.70
2015,08,12,04,54,15.60
2015,08,12,04,55,15.60
2015,08,12,04,56,15.60
2015,08,12,04,57,15.60
2015,08,12,04,58,15.70
2015,08,12,04,59,15.70
2015,08,12,05,00,15.70
2015,08,12,05,01,15.70
2015,08,12,05,02,15.70
2015,08,12,05,03,15.70
2015,08,12,05,04,15.70
2015,08,12,05,05,15.70
2015,08,12,05,06,15.70
2015,08,12,05,07,15.60
2015,08,12,05,08,15.60
2015,08,12,05,09,15.60
2015,08,12,05,10,15.60
2015,08,12,05,11,15.60
2015,08,12,05,12,15.60
2015,08,12,05,13,15.60
2015,08,12,05,14,15.60
2015,08,12,05,15,15.60
2015,08,12,05,16,15.60
2015,08,12,05,17,15.60
2015,08,12,05,18,15.70
2015,08,12,05,19,15.70
2015,08,12,05,20,15.70
2015,08,12,05,21,15.70
2015,08,12,05,22,15.70
2015,08,12,05,23,15.70
2015,08,12,05,24,15.70
2015,08,12,05,25,15.70
2015,08,12,05,26,15.70
2015,08,12,05,27,15.70
2015,08,12,05,28,15.70
2015,08,12,05,29,15.70
2015,08,12,05,30,15.70
2015,08,12,05,31,15.70
2015,08,12,05,32,15.70
2015,08,12,05,33,15.70
2015,08,12,05,34,15.70
2015,08,12,05,35,15.70
2015,08,12,05,36,15.70
2015,08,12,05,37,15.70
2015,08,12,05,38,15.60
2015,08,12,05,39,15.60
2015,08,12,05,40,15.60
2015,08,12,05,41,15.60
2015,08,12,05,42,15.60
2015,08,12,05,43,15.60
2015,08,12,05,44,15.60
2015,08,12,05,45,15.60
2015,08,12,05,46,15.60
2015,08,12,05,47,15.60
2015,08,12,05,48,15.60
2015,08,12,05,49,15.50
2015,08,12,05,50,15.50
2015,08,12,05,51,15.50
2015,08,12,05,52,15.50
2015,08,12,05,53,15.50
2015,08,12,05,54,15.50
2015,08,12,05,55,15.60
2015,08,12,05,56,15.60
2015,08,12,05,57,15.60
2015,08,12,05,58,15.60
2015,08,12,05,59,15.60
2015,08,12,06,00,15.60
2015,08,12,06,01,15.60
2015,08,12,06,02,15.60
2015,08,12,06,03,15.60
2015,08,12,06,04,15.70
2015,08,12,06,05,15.70
2015,08,12,06,06,15.70
2015,08,12,06,07,15.70
2015,08,12,06,08,15.70
2015,08,12,06,09,15.60
2015,08,12,06,10,15.60
2015,08,12,06,11,15.60
2015,08,12,06,12,15.60
2015,08,12,06,13,15.60
2015,08,12,06,14,15.60
2015,08,12,06,15,15.60
2015,08,12,06,16,15.60
2015,08,12,06,17,15.60
2015,08,12,06,18,15.60
2015,08,12,06,19,15.60
2015,08,12,06,20,15.60
2015,08,12,06,21,15.60
2015,08,12,06,22,15.60
2015,08,12,06,23,15.60
2015,08,12,06,24,15.60
2015,08,12,06,25,15.60
2015,08,12,06,26,15.60
2015,08,12,06,27,15.60
2015,08,12,06,28,15.50
2015,08,12,06,29,15.50
2015,08,12,06,30,15.50
2015,08,12,06,31,15.50
2015,08,12,06,32,15.60
2015,08,12,06,33,15.60
2015,08,12,06,34,15.60
2015,08,12,06,35,15.60
2015,08,12,06,36,15.60
2015,08,12,06,37,15.60
2015,08,12,06,38,15.60
2015,08,12,06,39,15.60
2015,08,12,06,40,15.60
2015,08,12,06,41,15.60
2015,08,12,06,42,15.70
2015,08,12,06,43,15.70
2015,08,12,06,44,15.70
2015,08,12,06,45,15.70
2015,08,12,06,46,15.70
2015,08,12,06,47,15.70
2015,08,12,06,48,15.70
2015,08,12,06,49,15.70
2015,08,12,06,50,15.70
2015,08,12,06,51,15.70
2015,08,12,06,52,15.70
2015,08,12,06,53,15.80
2015,08,12,06,54,15.80
2015,08,12,06,55,15.80
2015,08,12,06,56,15.80
2015,08,12,06,57,15.80
2015,08,12,06,58,15.80
2015,08,12,06,59,15.80
2015,08,12,07,00,15.80
2015,08,12,07,01,15.80
2015,08,12,07,02,15.80
2015,08,12,07,03,15.80
2015,08,12,07,04,15.80
2015,08,12,07,05,15.90
2015,08,12,07,06,15.90
2015,08,12,07,07,15.90
2015,08,12,07,08,15.90
2015,08,12,07,09,15.90
2015,08,12,07,10,15.90
2015,08,12,07,11,15.90
2015,08,12,07,12,15.90
2015,08,12,07,13,15.90
2015,08,12,07,14,15.90
2015,08,12,07,15,15.90
2015,08,12,07,16,15.90
2015,08,12,07,17,15.90
2015,08,12,07,18,15.90
2015,08,12,07,19,16.00
2015,08,12,07,20,15.90
2015,08,12,07,21,15.90
2015,08,12,07,22,15.90
2015,08,12,07,23,15.90
2015,08,12,07,24,15.90
2015,08,12,07,25,15.90
2015,08,12,07,26,15.80
2015,08,12,07,27,15.80
2015,08,12,07,28,15.80
2015,08,12,07,29,15.80
2015,08,12,07,30,15.80
2015,08,12,07,31,15.80
2015,08,12,07,32,15.80
2015,08,12,07,33,15.90
2015,08,12,07,34,15.90
2015,08,12,07,35,15.90
2015,08,12,07,36,16.00
2015,08,12,07,37,16.00
2015,08,12,07,38,16.00
2015,08,12,07,39,16.10
2015,08,12,07,40,16.10
2015,08,12,07,41,16.20
2015,08,12,07,42,16.20
2015,08,12,07,43,16.30
2015,08,12,07,44,16.30
2015,08,12,07,45,16.40
2015,08,12,07,46,16.40
2015,08,12,07,47,16.50
2015,08,12,07,48,16.50
2015,08,12,07,49,16.60
2015,08,12,07,50,16.70
2015,08,12,07,51,16.70
2015,08,12,07,52,16.80
2015,08,12,07,53,16.80
2015,08,12,07,54,16.90
2015,08,12,07,55,16.90
2015,08,12,07,56,17.00
2015,08,12,07,57,17.10
2015,08,12,07,58,17.20
2015,08,12,07,59,17.20
2015,08,12,08,00,17.30
2015,08,12,08,01,17.40
2015,08,12,08,02,17.50
2015,08,12,08,03,17.60
2015,08,12,08,04,17.70
2015,08,12,08,05,17.80
2015,08,12,08,06,17.80
2015,08,12,08,07,17.90
2015,08,12,08,08,17.90
2015,08,12,08,09,18.00
2015,08,12,08,10,18.10
2015,08,12,08,11,18.10
2015,08,12,08,12,18.00
2015,08,12,08,13,18.00
2015,08,12,08,14,17.90
2015,08,12,08,15,17.90
2015,08,12,08,16,17.80
2015,08,12,08,17,17.80
2015,08,12,08,18,17.70
2015,08,12,08,19,17.70
2015,08,12,08,20,17.70
2015,08,12,08,21,17.60
2015,08,12,08,22,17.60
2015,08,12,08,23,17.60
2015,08,12,08,24,17.60
2015,08,12,08,25,17.70
2015,08,12,08,26,17.70
2015,08,12,08,27,17.70
2015,08,12,08,28,17.70
2015,08,12,08,29,17.70
2015,08,12,08,30,17.70
2015,08,12,08,31,17.70
2015,08,12,08,32,17.80
2015,08,12,08,33,17.80
2015,08,12,08,34,17.80
2015,08,12,08,35,17.80
2015,08,12,08,36,17.90
2015,08,12,08,37,17.90
2015,08,12,08,38,17.90
2015,08,12,08,39,18.00
2015,08,12,08,40,18.00
2015,08,12,08,41,18.10
2015,08,12,08,42,18.10
2015,08,12,08,43,18.20
2015,08,12,08,44,18.20
2015,08,12,08,45,18.20
2015,08,12,08,46,18.20
2015,08,12,08,47,18.20
2015,08,12,08,48,18.20
2015,08,12,08,49,18.20
2015,08,12,08,50,18.20
2015,08,12,08,51,18.20
2015,08,12,08,52,18.20
2015,08,12,08,53,18.20
2015,08,12,08,54,18.30
2015,08,12,08,55,18.30
2015,08,12,08,56,18.30
2015,08,12,08,57,18.30
2015,08,12,08,58,18.40
2015,08,12,08,59,18.40
2015,08,12,09,00,18.40
2015,08,12,09,01,18.50
2015,08,12,09,02,18.50
2015,08,12,09,03,18.60
2015,08,12,09,04,18.60
2015,08,12,09,05,18.70
2015,08,12,09,06,18.70
2015,08,12,09,07,18.70
2015,08,12,09,08,18.70
2015,08,12,09,09,18.80
2015,08,12,09,10,18.80
2015,08,12,09,11,18.80
2015,08,12,09,12,18.80
2015,08,12,09,13,18.80
2015,08,12,09,14,18.90
2015,08,12,09,15,18.90
2015,08,12,09,16,18.90
2015,08,12,09,17,19.00
2015,08,12,09,18,19.10
2015,08,12,09,19,19.20
2015,08,12,09,20,19.30
2015,08,12,09,21,19.40
2015,08,12,09,22,19.50
2015,08,12,09,23,19.70
2015,08,12,09,24,19.80
2015,08,12,09,25,19.90
2015,08,12,09,26,20.00
2015,08,12,09,27,20.00
2015,08,12,09,28,20.10
2015,08,12,09,29,20.20
2015,08,12,09,30,20.20
2015,08,12,09,31,20.20
2015,08,12,09,32,20.20
2015,08,12,09,33,20.20
2015,08,12,09,34,20.20
2015,08,12,09,35,20.20
2015,08,12,09,36,20.20
2015,08,12,09,37,20.20
2015,08,12,09,38,20.30
2015,08,12,09,39,20.40
2015,08,12,09,40,20.50
2015,08,12,09,41,20.70
2015,08,12,09,42,20.70
2015,08,12,09,43,20.80
2015,08,12,09,44,20.90
2015,08,12,09,45,21.00
2015,08,12,09,46,21.10
2015,08,12,09,47,21.30
2015,08,12,09,48,21.40
2015,08,12,09,49,21.60
2015,08,12,09,50,21.70
2015,08,12,09,51,21.80
2015,08,12,09,52,21.90
2015,08,12,09,53,21.90
2015,08,12,09,54,22.00
2015,08,12,09,55,22.00
2015,08,12,09,56,22.10
2015,08,12,09,57,22.20
2015,08,12,09,58,22.20
2015,08,12,09,59,22.30
2015,08,12,10,00,22.40
2015,08,12,10,01,22.40
2015,08,12,10,02,22.50
2015,08,12,10,03,22.50
2015,08,12,10,04,22.50
2015,08,12,10,05,22.40
2015,08,12,10,06,22.30
2015,08,12,10,07,22.20
2015,08,12,10,08,22.10
2015,08,12,10,09,22.00
2015,08,12,10,10,21.90
2015,08,12,10,11,21.80
2015,08,12,10,12,21.70
2015,08,12,10,13,21.60
2015,08,12,10,14,21.50
2015,08,12,10,15,21.50
2015,08,12,10,16,21.40
2015,08,12,10,17,21.40
2015,08,12,10,18,21.40
2015,08,12,10,19,21.40
2015,08,12,10,20,21.30
2015,08,12,10,21,21.30
2015,08,12,10,22,21.30
2015,08,12,10,23,21.20
2015,08,12,10,24,21.20
2015,08,12,10,25,21.20
2015,08,12,10,26,21.10
2015,08,12,10,27,21.20
2015,08,12,10,28,21.20
2015,08,12,10,29,21.20
2015,08,12,10,30,21.10
2015,08,12,10,31,21.00
2015,08,12,10,32,21.00
2015,08,12,10,33,20.90
2015,08,12,10,34,20.90
2015,08,12,10,35,20.90
2015,08,12,10,36,20.90
2015,08,12,10,37,20.90
2015,08,12,10,38,20.90
2015,08,12,10,39,20.90
2015,08,12,10,40,20.90
2015,08,12,10,41,20.90
2015,08,12,10,42,20.90
2015,08,12,10,43,21.00
2015,08,12,10,44,21.00
2015,08,12,10,45,21.10
2015,08,12,10,46,21.10
2015,08,12,10,47,21.20
2015,08,12,10,48,21.30
2015,08,12,10,49,21.30
2015,08,12,10,50,21.40
2015,08,12,10,51,21.50
2015,08,12,10,52,21.60
2015,08,12,10,53,21.70
2015,08,12,10,54,21.70
2015,08,12,10,55,21.70
2015,08,12,10,56,21.70
2015,08,12,10,57,21.70
2015,08,12,10,58,21.60
2015,08,12,10,59,21.50
2015,08,12,11,00,21.40
2015,08,12,11,01,21.30
2015,08,12,11,02,21.20
2015,08,12,11,03,21.20
2015,08,12,11,04,21.10
2015,08,12,11,05,21.10
2015,08,12,11,06,21.10
2015,08,12,11,07,21.10
2015,08,12,11,08,21.00
2015,08,12,11,09,21.00
2015,08,12,11,10,20.90
2015,08,12,11,11,20.90
2015,08,12,11,12,20.90
2015,08,12,11,13,20.90
2015,08,12,11,14,20.90
2015,08,12,11,15,21.00
2015,08,12,11,16,21.00
2015,08,12,11,17,21.10
2015,08,12,11,18,21.00
2015,08,12,11,19,21.00
2015,08,12,11,20,20.90
2015,08,12,11,21,20.80
2015,08,12,11,22,20.70
2015,08,12,11,23,20.60
2015,08,12,11,24,20.60
2015,08,12,11,25,20.60
2015,08,12,11,26,20.60
2015,08,12,11,27,20.60
2015,08,12,11,28,20.60
2015,08,12,11,29,20.70
2015,08,12,11,30,20.70
2015,08,12,11,31,20.70
2015,08,12,11,32,20.70
2015,08,12,11,33,20.80
2015,08,12,11,34,20.80
2015,08,12,11,35,20.80
2015,08,12,11,36,20.90
2015,08,12,11,37,20.90
2015,08,12,11,38,21.00
2015,08,12,11,39,21.00
2015,08,12,11,40,21.10
2015,08,12,11,41,21.10
2015,08,12,11,42,21.20
2015,08,12,11,43,21.20
2015,08,12,11,44,21.30
2015,08,12,11,45,21.30
2015,08,12,11,46,21.40
2015,08,12,11,47,21.40
2015,08,12,11,48,21.50
2015,08,12,11,49,21.50
2015,08,12,11,50,21.60
2015,08,12,11,51,21.60
2015,08,12,11,52,21.60
2015,08,12,11,53,21.50
2015,08,12,11,54,21.50
2015,08,12,11,55,21.40
2015,08,12,11,56,21.30
2015,08,12,11,57,21.10
2015,08,12,11,58,20.90
2015,08,12,11,59,20.80
2015,08,12,12,00,20.60
2015,08,12,12,01,20.50
2015,08,12,12,02,20.50
2015,08,12,12,03,20.40
2015,08,12,12,04,20.40
2015,08,12,12,05,20.50
2015,08,12,12,06,20.50
2015,08,12,12,07,20.50
2015,08,12,12,08,20.50
2015,08,12,12,09,20.50
2015,08,12,12,10,20.40
2015,08,12,12,11,20.40
2015,08,12,12,12,20.40
2015,08,12,12,13,20.30
2015,08,12,12,14,20.20
2015,08,12,12,15,20.10
2015,08,12,12,16,20.10
2015,08,12,12,17,20.00
2015,08,12,12,18,20.00
2015,08,12,12,19,20.00
2015,08,12,12,20,20.10
2015,08,12,12,21,20.10
2015,08,12,12,22,20.10
2015,08,12,12,23,20.20
2015,08,12,12,24,20.20
2015,08,12,12,25,20.20
2015,08,12,12,26,20.20
2015,08,12,12,27,20.20
2015,08,12,12,28,20.20
2015,08,12,12,29,20.20
2015,08,12,12,30,20.20
2015,08,12,12,31,20.30
2015,08,12,12,32,20.20
2015,08,12,12,33,20.20
2015,08,12,12,34,20.20
2015,08,12,12,35,20.10
2015,08,12,12,36,20.10
2015,08,12,12,37,20.00
2015,08,12,12,38,20.00
2015,08,12,12,39,20.00
2015,08,12,12,40,20.00
2015,08,12,12,41,20.00
2015,08,12,12,42,20.00
2015,08,12,12,43,20.00
2015,08,12,12,44,19.90
2015,08,12,12,45,19.80
2015,08,12,12,46,19.70
2015,08,12,12,47,19.70
2015,08,12,12,48,19.70
2015,08,12,12,49,19.70
2015,08,12,12,50,19.60
2015,08,12,12,51,19.50
2015,08,12,12,52,19.40
2015,08,12,12,53,19.40
2015,08,12,12,54,19.40
2015,08,12,12,55,19.40
2015,08,12,12,56,19.50
2015,08,12,12,57,19.60
2015,08,12,12,58,19.60
2015,08,12,12,59,19.70
2015,08,12,13,00,19.70
2015,08,12,13,01,19.70
2015,08,12,13,02,19.70
2015,08,12,13,03,19.60
2015,08,12,13,04,19.60
2015,08,12,13,05,19.50
2015,08,12,13,06,19.50
2015,08,12,13,07,19.50
2015,08,12,13,08,19.50
2015,08,12,13,09,19.60
2015,08,12,13,10,19.70
2015,08,12,13,11,19.70
2015,08,12,13,12,19.70
2015,08,12,13,13,19.60
2015,08,12,13,14,19.50
2015,08,12,13,15,19.40
2015,08,12,13,16,19.40
2015,08,12,13,17,19.40
2015,08,12,13,18,19.40
2015,08,12,13,19,19.50
2015,08,12,13,20,19.50
2015,08,12,13,21,19.60
2015,08,12,13,22,19.70
2015,08,12,13,23,19.70
2015,08,12,13,24,19.80
2015,08,12,13,25,20.00
2015,08,12,13,26,20.10
2015,08,12,13,27,20.20
2015,08,12,13,28,20.20
2015,08,12,13,29,20.20
2015,08,12,13,30,20.30
2015,08,12,13,31,20.30
2015,08,12,13,32,20.40
2015,08,12,13,33,20.40
2015,08,12,13,34,20.40
2015,08,12,13,35,20.40
2015,08,12,13,36,20.40
2015,08,12,13,37,20.40
2015,08,12,13,38,20.30
2015,08,12,13,39,20.30
2015,08,12,13,40,20.40
2015,08,12,13,41,20.50
2015,08,12,13,42,20.50
2015,08,12,13,43,20.60
2015,08,12,13,44,20.80
2015,08,12,13,45,20.90
2015,08,12,13,46,21.00
2015,08,12,13,47,21.10
2015,08,12,13,48,21.20
2015,08,12,13,49,21.20
2015,08,12,13,50,21.30
2015,08,12,13,51,21.40
2015,08,12,13,52,21.50
2015,08,12,13,53,21.60
2015,08,12,13,54,21.80
2015,08,12,13,55,22.00
2015,08,12,13,56,22.20
2015,08,12,13,57,22.30
2015,08,12,13,58,22.40
2015,08,12,13,59,22.50
2015,08,12,14,00,22.60
2015,08,12,14,01,22.60
2015,08,12,14,02,22.60
2015,08,12,14,03,22.70
2015,08,12,14,04,22.70
2015,08,12,14,05,22.70
2015,08,12,14,06,22.80
2015,08,12,14,07,22.80
2015,08,12,14,08,22.90
2015,08,12,14,09,22.90
2015,08,12,14,10,22.70
2015,08,12,14,11,22.60
2015,08,12,14,12,22.40
2015,08,12,14,13,22.30
2015,08,12,14,14,22.20
2015,08,12,14,15,22.10
2015,08,12,14,16,22.00
2015,08,12,14,17,22.00
2015,08,12,14,18,21.90
2015,08,12,14,19,21.70
2015,08,12,14,20,21.60
2015,08,12,14,21,21.50
2015,08,12,14,22,21.50
2015,08,12,14,23,21.40
2015,08,12,14,24,21.40
2015,08,12,14,25,21.30
2015,08,12,14,26,21.30
2015,08,12,14,27,21.30
2015,08,12,14,28,21.20
2015,08,12,14,29,21.10
2015,08,12,14,30,21.10
2015,08,12,14,31,21.10
2015,08,12,14,32,21.20
2015,08,12,14,33,21.30
2015,08,12,14,34,21.40
2015,08,12,14,35,21.40
2015,08,12,14,36,21.50
2015,08,12,14,37,21.60
2015,08,12,14,38,21.70
2015,08,12,14,39,21.70
2015,08,12,14,40,21.70
2015,08,12,14,41,21.70
2015,08,12,14,42,21.60
2015,08,12,14,43,21.60
2015,08,12,14,44,21.60
2015,08,12,14,45,21.50
2015,08,12,14,46,21.40
2015,08,12,14,47,21.30
2015,08,12,14,48,21.20
2015,08,12,14,49,21.20
2015,08,12,14,50,21.30
2015,08,12,14,51,21.30
2015,08,12,14,52,21.30
2015,08,12,14,53,21.30
2015,08,12,14,54,21.30
2015,08,12,14,55,21.30
2015,08,12,14,56,21.30
2015,08,12,14,57,21.40
2015,08,12,14,58,21.40
2015,08,12,14,59,21.50
2015,08,12,15,00,21.70
2015,08,12,15,01,21.70
2015,08,12,15,02,21.80
2015,08,12,15,03,21.80
2015,08,12,15,04,21.80
2015,08,12,15,05,21.70
2015,08,12,15,06,21.60
2015,08,12,15,07,21.60
2015,08,12,15,08,21.60
2015,08,12,15,09,21.50
2015,08,12,15,10,21.30
2015,08,12,15,11,21.20
2015,08,12,15,12,21.10
2015,08,12,15,13,21.00
2015,08,12,15,14,21.00
2015,08,12,15,15,21.00
2015,08,12,15,16,21.00
2015,08,12,15,17,21.00
2015,08,12,15,18,21.10
2015,08,12,15,19,21.20
2015,08,12,15,20,21.20
2015,08,12,15,21,21.20
2015,08,12,15,22,21.30
2015,08,12,15,23,21.30
2015,08,12,15,24,21.30
2015,08,12,15,25,21.30
2015,08,12,15,26,21.30
2015,08,12,15,27,21.30
2015,08,12,15,28,21.40
2015,08,12,15,29,21.30
2015,08,12,15,30,21.40
2015,08,12,15,31,21.40
2015,08,12,15,32,21.50
2015,08,12,15,33,21.60
2015,08,12,15,34,21.70
2015,08,12,15,35,21.80
2015,08,12,15,36,21.90
2015,08,12,15,37,22.10
2015,08,12,15,38,22.20
2015,08,12,15,39,22.30
2015,08,12,15,40,22.30
2015,08,12,15,41,22.30
2015,08,12,15,42,22.30
2015,08,12,15,43,22.30
2015,08,12,15,44,22.30
2015,08,12,15,45,22.40
2015,08,12,15,46,22.40
2015,08,12,15,47,22.50
2015,08,12,15,48,22.60
2015,08,12,15,49,22.70
2015,08,12,15,50,22.70
2015,08,12,15,51,22.70
2015,08,12,15,52,22.60
2015,08,12,15,53,22.50
2015,08,12,15,54,22.30
2015,08,12,15,55,22.10
2015,08,12,15,56,22.00
2015,08,12,15,57,21.90
2015,08,12,15,58,21.80
2015,08,12,15,59,21.80
2015,08,12,16,00,21.70
2015,08,12,16,01,21.60
2015,08,12,16,02,21.40
2015,08,12,16,03,21.30
2015,08,12,16,04,21.20
2015,08,12,16,05,21.10
2015,08,12,16,06,21.10
2015,08,12,16,07,21.10
2015,08,12,16,08,21.10
2015,08,12,16,09,21.10
2015,08,12,16,10,21.00
2015,08,12,16,11,20.90
2015,08,12,16,12,20.80
2015,08,12,16,13,20.80
2015,08,12,16,14,20.90
2015,08,12,16,15,20.90
2015,08,12,16,16,21.00
2015,08,12,16,17,21.10
2015,08,12,16,18,21.10
2015,08,12,16,19,21.10
2015,08,12,16,20,21.10
2015,08,12,16,21,21.10
2015,08,12,16,22,21.10
2015,08,12,16,23,21.10
2015,08,12,16,24,21.10
2015,08,12,16,25,21.10
2015,08,12,16,26,20.90
2015,08,12,16,27,20.80
2015,08,12,16,28,20.80
2015,08,12,16,29,20.70
2015,08,12,16,30,20.60
2015,08,12,16,31,20.50
2015,08,12,16,32,20.50
2015,08,12,16,33,20.40
2015,08,12,16,34,20.40
2015,08,12,16,35,20.30
2015,08,12,16,36,20.30
2015,08,12,16,37,20.30
2015,08,12,16,38,20.20
2015,08,12,16,39,20.20
2015,08,12,16,40,20.20
2015,08,12,16,41,20.10
2015,08,12,16,42,20.00
2015,08,12,16,43,20.00
2015,08,12,16,44,19.90
2015,08,12,16,45,19.90
2015,08,12,16,46,19.80
2015,08,12,16,47,19.80
2015,08,12,16,48,19.80
2015,08,12,16,49,19.80
2015,08,12,16,50,19.80
2015,08,12,16,51,19.80
2015,08,12,16,52,19.90
2015,08,12,16,53,19.90
2015,08,12,16,54,20.00
2015,08,12,16,55,20.00
2015,08,12,16,56,20.10
2015,08,12,16,57,20.10
2015,08,12,16,58,20.20
2015,08,12,16,59,20.20
2015,08,12,17,00,20.20
2015,08,12,17,01,20.20
2015,08,12,17,02,20.30
2015,08,12,17,03,20.30
2015,08,12,17,04,20.30
2015,08,12,17,05,20.40
2015,08,12,17,06,20.50
2015,08,12,17,07,20.60
2015,08,12,17,08,20.60
2015,08,12,17,09,20.60
2015,08,12,17,10,20.70
2015,08,12,17,11,20.70
2015,08,12,17,12,20.80
2015,08,12,17,13,20.90
2015,08,12,17,14,21.00
2015,08,12,17,15,21.10
2015,08,12,17,16,21.20
2015,08,12,17,17,21.30
2015,08,12,17,18,21.30
2015,08,12,17,19,21.30